CJT967 KCVG-MMMY

Flight info

Callsign CJT967
Flight time N/A
Altitude 36000
Route CHCLL6 RAMRD DCT MEM J29 CARIN/N0457F380 J29 PSX DCT REX UJ13 ITPIS ITPIS1A
Aircraft B763/H-SDE3FGHIM3RWXY/LB1

Departure

Time 2026-05-06 14:49
Airport Cincinnati Northern Kentucky International Airport (KCVG)

Arrival

Time N/A
Airport Monterrey International Airport (MMMY)
Time Latitude Longitude Altitude Speed Heading
2026-05-06 14:32 39.03397 -84.65232 906 ft 0 kts 297°
2026-05-06 14:38 39.03391 -84.65218 906 ft 2 kts 297°
2026-05-06 14:39 39.03384 -84.65201 906 ft 2 kts 298°
2026-05-06 14:39 39.03375 -84.65185 906 ft 2 kts 316°
2026-05-06 14:39 39.03363 -84.65173 906 ft 2 kts 327°
2026-05-06 14:39 39.03350 -84.65163 906 ft 2 kts 340°
2026-05-06 14:40 39.03335 -84.65158 906 ft 2 kts 352°
2026-05-06 14:40 39.03326 -84.65157 906 ft 1 kts 359°
2026-05-06 14:40 39.03321 -84.65157 906 ft 0 kts
2026-05-06 14:42 39.03323 -84.65157 906 ft 2 kts
2026-05-06 14:43 39.03377 -84.65157 906 ft 12 kts
2026-05-06 14:43 39.03469 -84.65156 906 ft 12 kts
2026-05-06 14:43 39.03555 -84.65147 906 ft 11 kts 28°
2026-05-06 14:43 39.03571 -84.65063 906 ft 10 kts 92°
2026-05-06 14:44 39.03608 -84.64996 906 ft 10 kts 15°
2026-05-06 14:44 39.03691 -84.64992 906 ft 12 kts 360°
2026-05-06 14:44 39.03791 -84.64992 906 ft 15 kts 360°
2026-05-06 14:45 39.04028 -84.64992 906 ft 17 kts 359°
2026-05-06 14:45 39.04150 -84.64992 906 ft 16 kts
2026-05-06 14:45 39.04264 -84.64991 906 ft 15 kts
2026-05-06 14:45 39.04369 -84.64989 906 ft 15 kts
2026-05-06 14:46 39.04456 -84.65035 906 ft 14 kts 287°
2026-05-06 14:46 39.04464 -84.65170 906 ft 15 kts 272°
2026-05-06 14:46 39.04501 -84.65286 906 ft 14 kts 345°
2026-05-06 14:46 39.04604 -84.65308 906 ft 11 kts 339°
2026-05-06 14:47 39.04628 -84.65372 906 ft 0 kts 268°
2026-05-06 14:47 39.04628 -84.65373 906 ft 0 kts 268°
2026-05-06 14:47 39.04628 -84.65374 906 ft 0 kts 268°
2026-05-06 14:47 39.04626 -84.65526 906 ft 45 kts 271°
2026-05-06 14:48 39.04627 -84.66207 906 ft 101 kts 270°
2026-05-06 14:48 39.04629 -84.67314 907 ft 143 kts 270°
2026-05-06 14:48 39.04649 -84.68710 1075 ft 160 kts 275°
2026-05-06 14:48 39.04661 -84.70127 1469 ft 158 kts 273°
2026-05-06 14:49 39.04655 -84.71608 1703 ft 171 kts 273°
2026-05-06 14:49 39.04650 -84.73177 2002 ft 180 kts 272°
2026-05-06 14:49 39.04645 -84.74857 2245 ft 193 kts 272°
2026-05-06 14:49 39.04639 -84.76685 2453 ft 211 kts 272°
2026-05-06 14:50 39.04633 -84.78651 2724 ft 230 kts 272°
2026-05-06 14:50 39.04625 -84.80807 3109 ft 246 kts 272°
2026-05-06 14:50 39.04615 -84.83077 3545 ft 260 kts 271°
2026-05-06 14:50 39.04603 -84.85442 4231 ft 263 kts 271°
2026-05-06 14:51 39.04235 -84.87759 4898 ft 271 kts 245°
2026-05-06 14:51 39.03025 -84.89647 5569 ft 277 kts 216°
2026-05-06 14:51 39.01258 -84.90589 6216 ft 281 kts 187°
2026-05-06 14:51 38.99280 -84.90485 6887 ft 284 kts 171°
2026-05-06 14:52 38.97319 -84.90133 7550 ft 286 kts 173°
2026-05-06 14:52 38.95329 -84.89830 8207 ft 289 kts 173°
2026-05-06 14:52 38.93285 -84.89532 8865 ft 292 kts 173°
2026-05-06 14:52 38.91276 -84.89246 9484 ft 295 kts 174°
2026-05-06 14:53 38.89202 -84.88952 10031 ft 301 kts 175°
2026-05-06 14:53 38.87081 -84.88655 10502 ft 310 kts 176°
2026-05-06 14:53 38.84846 -84.88347 10808 ft 326 kts 177°
2026-05-06 14:53 38.82558 -84.88031 11168 ft 339 kts 177°
2026-05-06 14:54 38.80206 -84.87953 11914 ft 333 kts 191°
2026-05-06 14:54 38.77977 -84.88554 12863 ft 326 kts 197°
2026-05-06 14:54 38.75742 -84.89220 13365 ft 333 kts 197°
2026-05-06 14:54 38.73462 -84.89918 14035 ft 335 kts 197°
2026-05-06 14:55 38.71195 -84.90620 14647 ft 338 kts 198°
2026-05-06 14:55 38.68877 -84.91342 15246 ft 342 kts 198°
2026-05-06 14:55 38.66522 -84.92078 15850 ft 345 kts 198°
2026-05-06 14:55 38.64177 -84.92812 16423 ft 349 kts 198°
2026-05-06 14:56 38.61823 -84.93548 16979 ft 352 kts 198°
2026-05-06 14:56 38.59420 -84.94299 17542 ft 355 kts 198°
2026-05-06 14:56 38.56982 -84.95061 18074 ft 360 kts 199°
2026-05-06 14:56 38.54543 -84.95824 18633 ft 362 kts 199°
2026-05-06 14:57 38.52066 -84.96596 19166 ft 366 kts 199°
2026-05-06 14:57 38.49588 -84.97433 19716 ft 364 kts 205°
2026-05-06 14:57 38.47341 -84.98909 20202 ft 359 kts 220°
2026-05-06 14:57 38.45461 -85.00945 20754 ft 357 kts 226°
2026-05-06 14:58 38.43573 -85.03105 21292 ft 359 kts 226°
2026-05-06 14:58 38.41721 -85.05240 21801 ft 362 kts 226°
2026-05-06 14:58 38.39835 -85.07420 22335 ft 363 kts 227°
2026-05-06 14:58 38.37975 -85.09576 22826 ft 365 kts 227°
2026-05-06 14:59 38.36079 -85.11770 23344 ft 367 kts 228°
2026-05-06 14:59 38.34158 -85.13998 23866 ft 368 kts 228°
2026-05-06 14:59 38.32243 -85.16215 24314 ft 371 kts 229°
2026-05-06 14:59 38.30320 -85.18442 24812 ft 372 kts 229°
2026-05-06 15:00 38.28408 -85.20654 25240 ft 375 kts 229°
2026-05-06 15:00 38.26460 -85.22907 25694 ft 377 kts 229°
2026-05-06 15:00 38.24493 -85.25181 26139 ft 379 kts 229°
2026-05-06 15:00 38.22525 -85.27454 26507 ft 382 kts 230°
2026-05-06 15:01 38.20557 -85.29723 26919 ft 385 kts 229°
2026-05-06 15:01 38.18532 -85.32059 27354 ft 386 kts 230°
2026-05-06 15:01 38.16539 -85.34355 27711 ft 390 kts 230°
2026-05-06 15:01 38.14506 -85.36695 28083 ft 392 kts 230°
2026-05-06 15:02 38.12453 -85.39055 28472 ft 395 kts 230°
2026-05-06 15:02 38.10410 -85.41406 28774 ft 399 kts 230°
2026-05-06 15:02 38.08371 -85.43864 29121 ft 397 kts 235°
2026-05-06 15:02 38.06634 -85.46584 29528 ft 393 kts 239°
2026-05-06 15:03 38.04942 -85.49341 29859 ft 397 kts 239°
2026-05-06 15:03 38.03243 -85.52093 30203 ft 399 kts 239°
2026-05-06 15:03 38.01498 -85.54910 30505 ft 402 kts 239°
2026-05-06 15:03 37.99754 -85.57722 30849 ft 404 kts 240°
2026-05-06 15:04 37.97987 -85.60567 31152 ft 407 kts 240°
2026-05-06 15:04 37.96221 -85.63406 31456 ft 410 kts 239°
2026-05-06 15:04 37.94460 -85.66235 31813 ft 412 kts 239°
2026-05-06 15:04 37.92664 -85.69115 32183 ft 413 kts 239°
2026-05-06 15:05 37.90852 -85.72019 32393 ft 418 kts 239°
2026-05-06 15:05 37.89043 -85.74912 32971 ft 414 kts 239°
2026-05-06 15:05 37.87268 -85.77750 33406 ft 413 kts 240°
2026-05-06 15:05 37.85468 -85.80627 33779 ft 413 kts 240°
2026-05-06 15:06 37.83651 -85.83530 34012 ft 416 kts 240°
2026-05-06 15:06 37.81839 -85.86390 34339 ft 419 kts 238°
2026-05-06 15:06 37.79740 -85.88977 34740 ft 429 kts 228°
2026-05-06 15:06 37.77215 -85.91130 35175 ft 439 kts 219°
2026-05-06 15:07 37.74484 -85.92932 35573 ft 440 kts 217°
2026-05-06 15:07 37.71710 -85.94727 35803 ft 441 kts 217°
2026-05-06 15:07 37.68988 -85.96470 35991 ft 428 kts 217°
2026-05-06 15:08 37.63673 -85.99867 35990 ft 427 kts 217°
2026-05-06 15:08 37.58329 -86.03268 35991 ft 432 kts 218°
2026-05-06 15:09 37.52874 -86.06729 35991 ft 437 kts 217°
2026-05-06 15:09 37.47396 -86.10192 35999 ft 439 kts 217°
2026-05-06 15:10 37.41893 -86.13665 36002 ft 439 kts 217°
2026-05-06 15:10 37.36404 -86.17123 35994 ft 440 kts 217°
2026-05-06 15:11 37.30918 -86.20574 35992 ft 437 kts 217°
2026-05-06 15:11 37.25456 -86.24007 35998 ft 440 kts 217°
2026-05-06 15:12 37.19908 -86.27488 36002 ft 443 kts 217°
2026-05-06 15:12 37.14362 -86.30959 35996 ft 439 kts 217°
2026-05-06 15:13 37.08922 -86.34358 35998 ft 438 kts 217°
2026-05-06 15:13 37.03384 -86.37820 36009 ft 443 kts 217°
2026-05-06 15:14 36.97819 -86.41291 36003 ft 447 kts 217°
2026-05-06 15:14 36.92860 -86.45737 36027 ft 427 kts 235°
2026-05-06 15:15 36.89325 -86.51617 36007 ft 420 kts 244°
2026-05-06 15:15 36.86066 -86.57745 35991 ft 420 kts 245°
2026-05-06 15:16 36.82861 -86.63882 35998 ft 420 kts 245°
2026-05-06 15:16 36.79672 -86.70031 36014 ft 424 kts 245°
2026-05-06 15:17 36.76445 -86.76253 36007 ft 420 kts 245°
2026-05-06 15:17 36.73254 -86.82405 36008 ft 421 kts 245°
2026-05-06 15:18 36.70066 -86.88541 35999 ft 420 kts 245°
2026-05-06 15:18 36.66880 -86.94664 36007 ft 420 kts 245°
2026-05-06 15:19 36.63685 -87.00787 35994 ft 415 kts 245°
2026-05-06 15:19 36.60523 -87.06845 36001 ft 412 kts 244°
2026-05-06 15:20 36.57399 -87.12815 35999 ft 408 kts 244°
2026-05-06 15:20 36.54292 -87.18743 35999 ft 408 kts 244°
2026-05-06 15:21 36.51154 -87.24721 36000 ft 408 kts 244°
2026-05-06 15:21 36.48028 -87.30667 36013 ft 409 kts 244°
2026-05-06 15:22 36.44894 -87.36616 36024 ft 409 kts 244°
2026-05-06 15:22 36.41765 -87.42542 36024 ft 408 kts 244°
2026-05-06 15:23 36.38624 -87.48486 36018 ft 408 kts 244°
2026-05-06 15:23 36.35468 -87.54443 36020 ft 408 kts 244°
2026-05-06 15:24 36.32339 -87.60341 36022 ft 408 kts 244°
2026-05-06 15:24 36.29190 -87.66267 36021 ft 409 kts 243°
2026-05-06 15:25 36.26043 -87.72177 36029 ft 408 kts 244°
2026-05-06 15:25 36.22886 -87.78097 36036 ft 409 kts 244°
2026-05-06 15:26 36.19723 -87.84017 36033 ft 410 kts 244°
2026-05-06 15:26 36.16578 -87.89893 36025 ft 408 kts 244°
2026-05-06 15:27 36.13412 -87.95800 36027 ft 409 kts 244°
2026-05-06 15:27 36.10236 -88.01715 36032 ft 410 kts 244°
2026-05-06 15:28 36.07068 -88.07604 36025 ft 408 kts 244°
2026-05-06 15:28 36.03891 -88.13501 36030 ft 410 kts 243°
2026-05-06 15:29 36.00712 -88.19388 36024 ft 409 kts 244°
2026-05-06 15:29 35.97541 -88.25252 36028 ft 408 kts 244°
2026-05-06 15:30 35.94343 -88.31159 36029 ft 410 kts 244°
2026-05-06 15:30 35.91150 -88.37044 36025 ft 410 kts 244°
2026-05-06 15:31 35.87945 -88.42941 36022 ft 410 kts 244°
2026-05-06 15:31 35.84769 -88.48776 36018 ft 409 kts 244°
2026-05-06 15:32 35.79950 -88.57606 36017 ft 411 kts 244°
2026-05-06 15:32 35.76758 -88.63444 36020 ft 409 kts 243°
2026-05-06 15:33 35.73548 -88.69307 36034 ft 411 kts 243°
2026-05-06 15:33 35.70340 -88.75157 36033 ft 410 kts 243°
2026-05-06 15:34 35.67125 -88.81007 36039 ft 410 kts 243°
2026-05-06 15:34 35.63884 -88.86896 36040 ft 411 kts 243°
2026-05-06 15:35 35.60680 -88.92706 36038 ft 410 kts 243°
2026-05-06 15:35 35.57457 -88.98542 36039 ft 412 kts 243°
2026-05-06 15:36 35.54214 -89.04404 36035 ft 410 kts 243°
2026-05-06 15:36 35.50989 -89.10223 36028 ft 411 kts 243°
2026-05-06 15:37 35.47741 -89.16077 36010 ft 410 kts 243°
2026-05-06 15:37 35.44527 -89.21855 36009 ft 409 kts 243°
2026-05-06 15:38 35.41301 -89.27648 36005 ft 410 kts 243°
2026-05-06 15:38 35.38050 -89.33477 36004 ft 410 kts 243°
2026-05-06 15:39 35.34807 -89.39279 36004 ft 409 kts 243°
2026-05-06 15:39 35.31576 -89.45052 36003 ft 410 kts 243°
2026-05-06 15:40 35.28339 -89.50827 36001 ft 410 kts 243°
2026-05-06 15:40 35.25078 -89.56635 36003 ft 410 kts 243°
2026-05-06 15:41 35.21836 -89.62398 36005 ft 410 kts 243°
2026-05-06 15:41 35.18572 -89.68193 36023 ft 410 kts 242°
2026-05-06 15:42 35.15306 -89.73979 36020 ft 410 kts 242°
2026-05-06 15:42 35.12065 -89.79712 36021 ft 411 kts 242°
2026-05-06 15:43 35.08785 -89.85506 36016 ft 410 kts 242°
2026-05-06 15:43 35.05516 -89.91271 36020 ft 411 kts 242°
2026-05-06 15:44 35.02243 -89.97031 36017 ft 411 kts 242°
2026-05-06 15:44 34.98832 -90.02673 35952 ft 408 kts 240°
2026-05-06 15:45 34.95410 -90.08257 36022 ft 412 kts 241°
2026-05-06 15:45 34.91919 -90.13939 36026 ft 418 kts 241°
2026-05-06 15:46 34.88396 -90.19662 36014 ft 424 kts 241°
2026-05-06 15:46 34.84790 -90.25505 36014 ft 429 kts 240°
2026-05-06 15:47 34.81184 -90.31338 36012 ft 429 kts 241°
2026-05-06 15:47 34.77599 -90.37126 36012 ft 426 kts 240°
2026-05-06 15:48 34.73992 -90.42944 36015 ft 428 kts 241°
2026-05-06 15:48 34.70382 -90.48755 36011 ft 427 kts 240°
2026-05-06 15:49 34.66774 -90.54555 36008 ft 427 kts 240°
2026-05-06 15:49 34.63163 -90.60351 36011 ft 429 kts 240°
2026-05-06 15:50 34.59541 -90.66155 36016 ft 429 kts 240°
2026-05-06 15:50 34.55933 -90.71922 35354 ft 425 kts 240°
2026-05-06 15:51 34.54151 -90.74771 34606 ft 426 kts 240°
2026-05-06 15:51 34.52343 -90.77662 34001 ft 431 kts 240°
2026-05-06 15:51 34.48690 -90.83486 34022 ft 432 kts 240°
2026-05-06 15:52 34.45027 -90.89314 34026 ft 430 kts 240°
2026-05-06 15:52 34.41369 -90.95129 34032 ft 431 kts 240°
2026-05-06 15:53 34.37729 -91.00905 34031 ft 430 kts 240°
2026-05-06 15:53 34.34068 -91.06705 34041 ft 431 kts 239°
2026-05-06 15:54 34.30393 -91.12517 34043 ft 429 kts 239°
2026-05-06 15:54 34.26747 -91.18276 34050 ft 430 kts 239°
2026-05-06 15:55 34.23083 -91.24052 34053 ft 429 kts 239°
2026-05-06 15:55 34.19418 -91.29820 34043 ft 429 kts 239°
2026-05-06 15:56 34.15769 -91.35555 34039 ft 429 kts 239°
2026-05-06 15:56 34.12088 -91.41329 34044 ft 430 kts 239°
2026-05-06 15:57 34.08425 -91.47067 34052 ft 430 kts 239°
2026-05-06 15:57 34.04756 -91.52806 34044 ft 429 kts 239°
2026-05-06 15:58 34.01071 -91.58561 34033 ft 430 kts 239°
2026-05-06 15:58 33.97378 -91.64318 34022 ft 430 kts 239°
2026-05-06 15:59 33.93686 -91.70063 34024 ft 431 kts 239°
2026-05-06 15:59 33.90014 -91.75770 34025 ft 430 kts 239°
2026-05-06 16:00 33.86306 -91.81524 34026 ft 431 kts 239°
2026-05-06 16:00 33.82608 -91.87249 34024 ft 430 kts 239°
2026-05-06 16:01 33.78916 -91.92959 34019 ft 430 kts 239°
2026-05-06 16:01 33.75216 -91.98669 34010 ft 430 kts 239°
2026-05-06 16:02 33.71511 -92.04381 34008 ft 431 kts 239°
2026-05-06 16:02 33.67800 -92.10091 34006 ft 430 kts 239°
2026-05-06 16:03 33.64090 -92.15791 34006 ft 430 kts 239°
2026-05-06 16:03 33.60383 -92.21479 34007 ft 430 kts 239°
2026-05-06 16:04 33.56681 -92.27148 34013 ft 431 kts 239°
2026-05-06 16:04 33.52961 -92.32838 34015 ft 430 kts 239°
2026-05-06 16:05 33.49241 -92.38519 34021 ft 431 kts 239°
2026-05-06 16:05 33.45500 -92.44222 34020 ft 431 kts 239°
2026-05-06 16:06 33.41764 -92.49911 34019 ft 431 kts 239°
2026-05-06 16:06 33.38020 -92.55602 34012 ft 431 kts 239°
2026-05-06 16:07 33.34312 -92.61229 34009 ft 430 kts 238°
2026-05-06 16:07 33.30574 -92.66894 34034 ft 429 kts 238°
2026-05-06 16:08 33.26824 -92.72514 34031 ft 433 kts 235°
2026-05-06 16:08 33.22074 -92.77234 34038 ft 446 kts 222°
2026-05-06 16:09 33.16952 -92.81499 34031 ft 446 kts 222°
2026-05-06 16:09 33.11816 -92.85739 34031 ft 447 kts 222°
2026-05-06 16:10 33.06695 -92.89950 34030 ft 447 kts 221°
2026-05-06 16:10 33.01530 -92.94185 34026 ft 446 kts 221°
2026-05-06 16:11 32.96363 -92.98412 34024 ft 447 kts 221°
2026-05-06 16:11 32.93805 -93.00505 34164 ft 451 kts 221°
2026-05-06 16:11 32.91196 -93.02633 34632 ft 449 kts 221°
2026-05-06 16:12 32.88595 -93.04755 35082 ft 446 kts 221°
2026-05-06 16:12 32.86041 -93.06838 35397 ft 447 kts 222°
2026-05-06 16:12 32.83443 -93.08955 35777 ft 445 kts 222°
2026-05-06 16:12 32.80891 -93.11033 36005 ft 444 kts 222°
2026-05-06 16:13 32.75761 -93.15208 35993 ft 444 kts 222°
2026-05-06 16:13 32.70627 -93.19380 35980 ft 443 kts 222°
2026-05-06 16:14 32.65515 -93.23528 35963 ft 443 kts 222°
2026-05-06 16:14 32.60395 -93.27675 35955 ft 443 kts 222°
2026-05-06 16:15 32.55278 -93.31815 35957 ft 444 kts 222°
2026-05-06 16:15 32.50140 -93.35966 35958 ft 444 kts 222°
2026-05-06 16:16 32.44986 -93.40124 35957 ft 444 kts 222°
2026-05-06 16:16 32.39878 -93.44237 35958 ft 443 kts 222°
2026-05-06 16:17 32.34723 -93.48386 35954 ft 444 kts 222°
2026-05-06 16:17 32.29599 -93.52501 35949 ft 443 kts 222°
2026-05-06 16:18 32.24442 -93.56638 35952 ft 444 kts 222°
2026-05-06 16:18 32.19292 -93.60764 35948 ft 444 kts 222°
2026-05-06 16:19 32.14162 -93.64868 35949 ft 444 kts 222°
2026-05-06 16:19 32.08989 -93.68999 35962 ft 446 kts 222°
2026-05-06 16:20 32.03824 -93.73119 35960 ft 444 kts 222°
2026-05-06 16:20 31.98688 -93.77211 35959 ft 444 kts 222°
2026-05-06 16:21 31.93524 -93.81319 35960 ft 445 kts 222°
2026-05-06 16:21 31.88405 -93.85385 35954 ft 445 kts 222°
2026-05-06 16:22 31.83236 -93.89487 35953 ft 445 kts 222°
2026-05-06 16:22 31.78107 -93.93550 35957 ft 443 kts 222°
2026-05-06 16:23 31.72949 -93.97629 35958 ft 444 kts 222°
2026-05-06 16:23 31.67782 -94.01710 35962 ft 444 kts 222°
2026-05-06 16:24 31.62599 -94.05796 35959 ft 444 kts 222°
2026-05-06 16:24 31.57466 -94.09839 35961 ft 445 kts 222°
2026-05-06 16:25 31.52303 -94.13899 35959 ft 444 kts 222°
2026-05-06 16:25 31.47123 -94.17968 35960 ft 444 kts 222°
2026-05-06 16:26 31.41941 -94.22032 35958 ft 444 kts 222°
2026-05-06 16:26 31.36785 -94.26070 35957 ft 444 kts 222°
2026-05-06 16:27 31.31630 -94.30103 35958 ft 445 kts 222°
2026-05-06 16:27 31.26447 -94.34152 35955 ft 444 kts 222°
2026-05-06 16:28 31.21265 -94.38197 35953 ft 444 kts 222°
2026-05-06 16:28 31.16092 -94.42229 35952 ft 445 kts 222°
2026-05-06 16:29 31.10926 -94.46249 35951 ft 445 kts 222°
2026-05-06 16:29 31.05741 -94.50279 35950 ft 444 kts 222°
2026-05-06 16:30 31.01444 -94.53612 35952 ft 444 kts 222°
2026-05-06 16:30 30.95427 -94.58272 35949 ft 441 kts 224°
2026-05-06 16:31 30.90319 -94.62226 35949 ft 439 kts 225°
2026-05-06 16:31 30.85205 -94.66180 35953 ft 438 kts 225°
2026-05-06 16:32 30.80071 -94.70150 35957 ft 440 kts 225°
2026-05-06 16:32 30.74927 -94.74116 35956 ft 439 kts 225°
2026-05-06 16:33 30.69830 -94.78043 35956 ft 439 kts 225°
2026-05-06 16:34 30.62145 -94.83952 35951 ft 439 kts 225°
2026-05-06 16:34 30.57009 -94.87894 35948 ft 438 kts 225°
2026-05-06 16:35 30.51890 -94.91818 35946 ft 438 kts 225°
2026-05-06 16:35 30.46789 -94.95724 35947 ft 438 kts 225°
2026-05-06 16:36 30.41699 -94.99616 35947 ft 437 kts 225°
2026-05-06 16:36 30.36589 -95.03518 35946 ft 437 kts 225°
2026-05-06 16:37 30.31493 -95.07404 35943 ft 436 kts 225°
2026-05-06 16:37 30.26413 -95.11275 35946 ft 437 kts 225°
2026-05-06 16:38 30.21310 -95.15155 35940 ft 435 kts 225°
2026-05-06 16:38 30.16211 -95.19031 35937 ft 436 kts 225°
2026-05-06 16:39 30.11125 -95.22890 35932 ft 436 kts 225°
2026-05-06 16:39 30.06029 -95.26753 35929 ft 436 kts 225°
2026-05-06 16:40 30.00922 -95.30617 35924 ft 435 kts 225°
2026-05-06 16:40 29.95838 -95.34465 35927 ft 435 kts 225°
2026-05-06 16:41 29.90893 -95.38487 35927 ft 433 kts 227°
2026-05-06 16:41 29.85982 -95.42497 35917 ft 432 kts 227°
2026-05-06 16:42 29.81046 -95.46519 35917 ft 433 kts 227°
2026-05-06 16:42 29.76123 -95.50526 35914 ft 432 kts 227°
2026-05-06 16:43 29.71162 -95.54559 35917 ft 432 kts 227°
2026-05-06 16:43 29.66215 -95.58576 35923 ft 433 kts 227°
2026-05-06 16:44 29.61299 -95.62561 35924 ft 432 kts 227°
2026-05-06 16:44 29.56330 -95.66585 35941 ft 432 kts 226°
2026-05-06 16:45 29.51394 -95.70579 35938 ft 434 kts 226°
2026-05-06 16:45 29.46432 -95.74586 35931 ft 433 kts 226°
2026-05-06 16:46 29.41479 -95.78585 35931 ft 434 kts 226°
2026-05-06 16:46 29.36520 -95.82581 35926 ft 433 kts 226°
2026-05-06 16:47 29.31534 -95.86594 35920 ft 433 kts 226°
2026-05-06 16:47 29.26594 -95.90565 35919 ft 434 kts 226°
2026-05-06 16:48 29.21595 -95.94579 35915 ft 433 kts 226°
2026-05-06 16:48 29.16660 -95.98538 35912 ft 434 kts 226°
2026-05-06 16:49 29.11697 -96.02514 35900 ft 434 kts 226°
2026-05-06 16:49 29.06717 -96.06499 35900 ft 434 kts 226°
2026-05-06 16:50 29.01706 -96.10507 35902 ft 438 kts 225°
2026-05-06 16:50 28.96682 -96.14517 35901 ft 440 kts 224°
2026-05-06 16:51 28.91639 -96.18534 35897 ft 439 kts 224°
2026-05-06 16:51 28.86595 -96.22549 35891 ft 439 kts 224°
2026-05-06 16:52 28.81549 -96.26562 35893 ft 440 kts 224°
2026-05-06 16:52 28.76516 -96.30553 35890 ft 440 kts 223°
2026-05-06 16:53 28.71306 -96.34325 35890 ft 441 kts 222°
2026-05-06 16:53 28.66053 -96.38100 35892 ft 442 kts 222°
2026-05-06 16:54 28.60860 -96.41830 35892 ft 441 kts 222°
2026-05-06 16:54 28.55605 -96.45601 35891 ft 442 kts 222°
2026-05-06 16:55 28.50399 -96.49332 35891 ft 442 kts 222°
2026-05-06 16:55 28.45153 -96.53088 35890 ft 442 kts 222°
2026-05-06 16:56 28.39921 -96.56830 35890 ft 442 kts 222°
2026-05-06 16:56 28.34708 -96.60555 35890 ft 442 kts 222°
2026-05-06 16:57 28.29473 -96.64289 35888 ft 442 kts 222°
2026-05-06 16:57 28.24214 -96.68037 35903 ft 443 kts 221°
2026-05-06 16:58 28.18942 -96.71790 35899 ft 443 kts 221°
2026-05-06 16:58 28.13697 -96.75518 35896 ft 442 kts 221°
2026-05-06 16:59 28.08453 -96.79243 35898 ft 443 kts 221°
2026-05-06 16:59 28.03222 -96.82952 35895 ft 442 kts 221°
2026-05-06 17:00 27.97984 -96.86665 35897 ft 443 kts 221°
2026-05-06 17:00 27.92714 -96.90393 35899 ft 443 kts 221°
2026-05-06 17:01 27.87440 -96.94121 35892 ft 443 kts 221°
2026-05-06 17:01 27.82191 -96.97828 35896 ft 442 kts 221°
2026-05-06 17:02 27.76975 -97.01506 35896 ft 442 kts 221°
2026-05-06 17:02 27.71713 -97.05212 35891 ft 441 kts 221°
2026-05-06 17:03 27.66474 -97.08900 35886 ft 442 kts 221°
2026-05-06 17:03 27.61230 -97.12584 35876 ft 441 kts 220°
2026-05-06 17:04 27.55985 -97.16266 35876 ft 442 kts 220°
2026-05-06 17:04 27.50733 -97.19949 35869 ft 441 kts 220°
2026-05-06 17:05 27.45503 -97.23611 35868 ft 441 kts 220°
2026-05-06 17:05 27.40256 -97.27281 35867 ft 440 kts 220°
2026-05-06 17:06 27.35006 -97.30950 35868 ft 441 kts 220°
2026-05-06 17:06 27.29763 -97.34611 35869 ft 442 kts 220°
2026-05-06 17:07 27.24524 -97.38262 35863 ft 441 kts 220°
2026-05-06 17:07 27.19302 -97.41900 35860 ft 441 kts 220°
2026-05-06 17:08 27.14043 -97.45558 35866 ft 441 kts 220°
2026-05-06 17:08 27.08791 -97.49208 35863 ft 441 kts 220°
2026-05-06 17:09 27.03573 -97.52830 35857 ft 440 kts 220°
2026-05-06 17:09 26.98316 -97.56478 35849 ft 443 kts 219°
2026-05-06 17:10 26.93083 -97.60102 35842 ft 443 kts 219°
2026-05-06 17:10 26.87825 -97.63741 35836 ft 445 kts 218°
2026-05-06 17:11 26.82498 -97.67419 35847 ft 446 kts 217°
2026-05-06 17:11 26.77200 -97.71075 35845 ft 445 kts 217°
2026-05-06 17:12 26.71880 -97.74743 35844 ft 446 kts 218°
2026-05-06 17:12 26.66582 -97.78391 35843 ft 446 kts 218°
2026-05-06 17:13 26.61419 -97.81943 35841 ft 446 kts 218°
2026-05-06 17:13 26.56121 -97.85583 35840 ft 446 kts 218°
2026-05-06 17:14 26.50831 -97.89214 35835 ft 446 kts 218°
2026-05-06 17:14 26.45505 -97.92868 35835 ft 446 kts 218°
2026-05-06 17:15 26.40173 -97.96519 35835 ft 445 kts 218°
2026-05-06 17:15 26.34893 -98.00132 35839 ft 445 kts 218°
2026-05-06 17:16 26.29592 -98.03756 35841 ft 447 kts 218°
2026-05-06 17:16 26.24244 -98.07407 35844 ft 446 kts 218°
2026-05-06 17:17 26.18931 -98.11029 35843 ft 446 kts 218°
2026-05-06 17:17 26.13691 -98.14592 35804 ft 422 kts 218°
2026-05-06 17:17 26.11214 -98.16283 35834 ft 409 kts 220°
2026-05-06 17:18 26.08974 -98.18212 35826 ft 399 kts 230°
2026-05-06 17:18 26.05782 -98.23120 35835 ft 389 kts 250°
2026-05-06 17:18 26.04850 -98.25986 35288 ft 394 kts 259°
2026-05-06 17:19 26.04433 -98.28979 34727 ft 387 kts 270°
2026-05-06 17:19 26.04519 -98.31986 34169 ft 382 kts 278°
2026-05-06 17:19 26.04913 -98.34920 33613 ft 381 kts 281°
2026-05-06 17:19 26.05462 -98.37811 33061 ft 385 kts 283°
2026-05-06 17:20 26.06114 -98.40723 32501 ft 387 kts 284°
2026-05-06 17:20 26.06824 -98.43639 31956 ft 390 kts 285°
2026-05-06 17:20 26.07577 -98.46587 31426 ft 393 kts 285°
2026-05-06 17:20 26.08356 -98.49554 30910 ft 396 kts 285°
2026-05-06 17:21 26.09141 -98.52496 30417 ft 399 kts 285°
2026-05-06 17:21 26.09945 -98.55482 29925 ft 397 kts 285°
2026-05-06 17:21 26.10738 -98.58413 29456 ft 394 kts 285°
2026-05-06 17:21 26.11534 -98.61346 29002 ft 395 kts 284°
2026-05-06 17:22 26.12265 -98.64326 28544 ft 391 kts 279°
2026-05-06 17:22 26.12522 -98.67305 28116 ft 388 kts 268°
2026-05-06 17:22 26.12251 -98.70322 27676 ft 385 kts 258°
2026-05-06 17:22 26.11643 -98.73219 27237 ft 383 kts 255°
2026-05-06 17:23 26.10993 -98.76099 26788 ft 382 kts 255°
2026-05-06 17:23 26.10317 -98.78982 26339 ft 380 kts 254°
2026-05-06 17:23 26.09641 -98.81804 25900 ft 379 kts 254°
2026-05-06 17:23 26.08948 -98.84654 25457 ft 377 kts 253°
2026-05-06 17:24 26.08251 -98.87502 25015 ft 375 kts 253°
2026-05-06 17:24 26.07568 -98.90277 24584 ft 374 kts 253°
2026-05-06 17:24 26.06867 -98.93114 24147 ft 372 kts 253°
2026-05-06 17:24 26.06177 -98.95901 23717 ft 370 kts 254°
2026-05-06 17:25 26.05491 -98.98667 23291 ft 368 kts 254°
2026-05-06 17:25 26.04815 -99.01392 22874 ft 366 kts 254°
2026-05-06 17:25 26.04134 -99.04132 22454 ft 365 kts 255°
2026-05-06 17:25 26.03455 -99.06863 22038 ft 364 kts 255°
2026-05-06 17:26 26.02782 -99.09566 21624 ft 362 kts 255°
2026-05-06 17:26 26.02101 -99.12300 21208 ft 361 kts 255°
2026-05-06 17:26 26.01422 -99.15025 20794 ft 360 kts 255°
2026-05-06 17:26 26.00754 -99.17705 20389 ft 358 kts 255°
2026-05-06 17:27 26.00084 -99.20392 19987 ft 356 kts 255°
2026-05-06 17:27 25.99353 -99.23036 19552 ft 357 kts 252°
2026-05-06 17:27 25.98543 -99.25643 19000 ft 357 kts 252°
2026-05-06 17:27 25.97736 -99.28271 18522 ft 354 kts 252°
2026-05-06 17:28 25.96935 -99.30878 18001 ft 353 kts 252°